timestamp,wind_dir_avg,wind_spd_avg,wind_spd_max_dir,wind_spd_gust,battery_voltage,lat,long
2022-08-01 00:04:00+00:00,257.0,5.3,254.0,5.83,12.81,47.59359,-54.27349
2022-08-01 00:14:01+00:00,257.0,5.33,256.0,5.83,12.57,47.59359,-54.27349
2022-08-01 00:24:01+00:00,261.0,4.87,262.0,5.62,12.57,47.59359,-54.27349
2022-08-01 00:34:01+00:00,266.0,5.03,271.0,5.63,12.57,47.59359,-54.27349
2022-08-01 00:44:01+00:00,265.0,4.84,269.0,5.21,12.57,47.59359,-54.27349
2022-08-01 00:54:01+00:00,259.0,3.59,255.0,4.21,12.57,47.59359,-54.27349
2022-08-01 01:04:01+00:00,254.0,3.11,253.0,3.46,12.57,47.59359,-54.27349
2022-08-01 01:14:00+00:00,258.0,4.03,259.0,4.74,12.57,47.59359,-54.27349
2022-08-01 01:24:00+00:00,265.0,3.55,269.0,4.34,12.57,47.59359,-54.27349
2022-08-01 01:34:00+00:00,286.0,2.9,293.0,3.44,12.57,47.59359,-54.27349
2022-08-01 01:44:00+00:00,272.0,2.86,267.0,3.24,12.57,47.59359,-54.27349
2022-08-01 01:54:00+00:00,281.0,3.89,284.0,4.34,12.57,47.59359,-54.27349
2022-08-01 02:04:00+00:00,280.0,5.46,280.0,5.67,12.57,47.59359,-54.27349
2022-08-01 02:14:00+00:00,281.0,4.76,281.0,4.98,12.57,47.59359,-54.27349
2022-08-01 02:24:00+00:00,285.0,4.9,285.0,5.06,12.57,47.59359,-54.27349
2022-08-01 02:34:00+00:00,285.0,4.51,284.0,4.68,12.57,47.59359,-54.27349
2022-08-01 02:44:00+00:00,272.0,3.84,273.0,4.01,12.57,47.59359,-54.27349
2022-08-01 02:54:00+00:00,251.0,3.5,252.0,3.66,12.57,47.59359,-54.27349
2022-08-01 03:04:00+00:00,245.0,4.41,248.0,4.59,12.57,47.59359,-54.27349
2022-08-01 03:14:00+00:00,235.0,3.44,235.0,3.77,12.49,47.59359,-54.27349
2022-08-01 03:24:00+00:00,207.0,4.04,209.0,4.6,12.49,47.59359,-54.27349
2022-08-01 03:34:00+00:00,216.0,6.52,210.0,7.07,12.49,47.59359,-54.27349
2022-08-01 03:44:00+00:00,230.0,6.0,231.0,6.36,12.49,47.59359,-54.27349
2022-08-01 03:54:00+00:00,231.0,5.87,231.0,6.6,12.49,47.59359,-54.27349
2022-08-01 04:04:00+00:00,228.0,4.49,228.0,5.07,12.49,47.59359,-54.27349
2022-08-01 04:14:01+00:00,227.0,3.46,229.0,3.8,12.41,47.59359,-54.27349
2022-08-01 04:24:01+00:00,235.0,4.16,238.0,4.71,12.41,47.59359,-54.27349
2022-08-01 04:34:01+00:00,225.0,2.91,229.0,3.66,12.41,47.59359,-54.27349
2022-08-01 04:44:01+00:00,250.0,4.49,252.0,5.07,12.41,47.59359,-54.27349
2022-08-01 04:54:01+00:00,243.0,4.74,241.0,5.62,12.41,47.59359,-54.27349
2022-08-01 05:04:01+00:00,239.0,2.43,224.0,2.98,12.41,47.59359,-54.27349
2022-08-01 05:14:00+00:00,263.0,2.78,264.0,3.3,12.41,47.59359,-54.27349
2022-08-01 05:24:00+00:00,234.0,4.01,237.0,4.62,12.41,47.59359,-54.27349
2022-08-01 05:34:00+00:00,222.0,4.66,224.0,5.02,12.41,47.59359,-54.27349
2022-08-01 05:44:00+00:00,229.0,4.54,234.0,5.16,12.41,47.59359,-54.27349
2022-08-01 05:54:00+00:00,220.0,5.3,220.0,5.82,12.41,47.59359,-54.27349
2022-08-01 06:04:00+00:00,223.0,5.88,220.0,6.72,12.41,47.59359,-54.27349
2022-08-01 06:14:00+00:00,228.0,4.76,220.0,5.38,12.41,47.59359,-54.27349
2022-08-01 06:24:00+00:00,246.0,4.4,249.0,4.77,12.41,47.59359,-54.27349
2022-08-01 06:34:00+00:00,252.0,4.39,245.0,5.37,12.41,47.59359,-54.27349
2022-08-01 06:44:00+00:00,217.0,4.82,219.0,5.33,12.41,47.59359,-54.27349
2022-08-01 06:54:00+00:00,216.0,4.67,216.0,5.23,12.41,47.59359,-54.27349
2022-08-01 07:04:00+00:00,213.0,4.52,218.0,5.21,12.41,47.59359,-54.27349
2022-08-01 07:14:00+00:00,220.0,3.16,221.0,3.9,12.41,47.59359,-54.27349
2022-08-01 07:24:00+00:00,225.0,2.67,231.0,3.23,12.41,47.59359,-54.27349
2022-08-01 07:34:00+00:00,218.0,3.2,215.0,3.71,12.41,47.59359,-54.27349
2022-08-01 07:44:00+00:00,194.0,4.48,200.0,5.36,12.41,47.59359,-54.27349
2022-08-01 07:54:00+00:00,213.0,3.77,210.0,4.8,12.41,47.59359,-54.27349
2022-08-01 08:04:00+00:00,223.0,3.23,226.0,3.85,12.41,47.59359,-54.27349
2022-08-01 08:14:00+00:00,223.0,2.94,229.0,3.9,12.41,47.59359,-54.27349
2022-08-01 08:24:00+00:00,233.0,3.36,243.0,3.8,12.41,47.59359,-54.27349
2022-08-01 08:34:00+00:00,217.0,3.92,221.0,4.39,12.41,47.59359,-54.27349
2022-08-01 08:44:00+00:00,223.0,3.41,229.0,4.47,12.41,47.59359,-54.27349
2022-08-01 08:54:00+00:00,215.0,2.81,215.0,3.58,12.41,47.59359,-54.27349
2022-08-01 09:04:00+00:00,220.0,3.41,227.0,4.22,12.41,47.59359,-54.27349
2022-08-01 09:14:00+00:00,219.0,4.53,217.0,5.42,12.49,47.59359,-54.27349
2022-08-01 09:24:00+00:00,224.0,5.67,224.0,6.05,12.49,47.59359,-54.27349
2022-08-01 09:34:00+00:00,236.0,5.56,237.0,6.24,12.49,47.59359,-54.27349
2022-08-01 09:44:00+00:00,224.0,5.75,223.0,6.3,12.49,47.59359,-54.27349
2022-08-01 09:54:00+00:00,214.0,5.88,216.0,6.47,12.49,47.59359,-54.27349
2022-08-01 10:04:00+00:00,211.0,6.87,213.0,7.29,12.49,47.59359,-54.27349
2022-08-01 10:14:00+00:00,214.0,6.32,215.0,6.75,13.29,47.59359,-54.27349
2022-08-01 10:24:00+00:00,208.0,5.32,211.0,6.13,13.29,47.59359,-54.27349
2022-08-01 10:34:00+00:00,251.0,5.48,253.0,7.38,13.29,47.59359,-54.27349
2022-08-01 10:44:00+00:00,251.0,4.32,253.0,5.45,13.29,47.59359,-54.27349
2022-08-01 10:54:00+00:00,267.0,3.75,269.0,4.61,13.29,47.59359,-54.27349
2022-08-01 11:04:00+00:00,251.0,3.15,258.0,4.71,13.29,47.59359,-54.27349
2022-08-01 11:14:01+00:00,221.0,2.23,227.0,3.01,13.76,47.59359,-54.27349
2022-08-01 11:24:01+00:00,252.0,2.75,251.0,3.43,13.76,47.59359,-54.27349
2022-08-01 11:34:01+00:00,236.0,3.1,239.0,3.72,13.76,47.59359,-54.27349
2022-08-01 11:44:01+00:00,210.0,2.57,216.0,3.84,13.76,47.59359,-54.27349
2022-08-01 11:54:01+00:00,235.0,2.93,252.0,3.78,13.76,47.59359,-54.27349
2022-08-01 12:04:01+00:00,200.0,3.23,225.0,4.64,13.76,47.59359,-54.27349
2022-08-01 13:14:01+00:00,185.0,4.11,189.0,4.61,14.24,47.59359,-54.27349
2022-08-01 13:24:01+00:00,210.0,4.54,218.0,5.55,14.24,47.59359,-54.27349
2022-08-01 13:34:01+00:00,211.0,4.67,230.0,5.66,14.24,47.59359,-54.27349
2022-08-01 13:44:01+00:00,209.0,4.08,215.0,4.59,14.24,47.59359,-54.27349
2022-08-01 13:54:01+00:00,212.0,3.66,212.0,4.49,14.24,47.59359,-54.27349
2022-08-01 14:04:01+00:00,228.0,2.94,231.0,3.42,14.24,47.59359,-54.27349
2022-08-01 14:14:01+00:00,212.0,3.63,213.0,4.16,14.24,47.59359,-54.27349
2022-08-01 14:24:01+00:00,220.0,3.6,220.0,4.2,14.24,47.59359,-54.27349
2022-08-01 14:34:01+00:00,243.0,3.73,248.0,4.5,14.24,47.59359,-54.27349
2022-08-01 14:44:01+00:00,257.0,4.2,256.0,4.86,14.24,47.59359,-54.27349
2022-08-01 14:54:01+00:00,269.0,4.26,273.0,4.82,14.24,47.59359,-54.27349
2022-08-01 15:04:01+00:00,260.0,4.84,261.0,5.22,14.24,47.59359,-54.27349
2022-08-01 15:14:01+00:00,224.0,3.77,226.0,4.55,14.24,47.59359,-54.27349
2022-08-01 15:24:01+00:00,213.0,5.96,207.0,6.99,14.24,47.59359,-54.27349
2022-08-01 15:34:01+00:00,199.0,7.02,213.0,8.12,14.24,47.59359,-54.27349
2022-08-01 15:44:01+00:00,215.0,6.9,224.0,7.97,14.24,47.59359,-54.27349
2022-08-01 15:54:01+00:00,221.0,4.73,232.0,6.17,14.24,47.59359,-54.27349
2022-08-01 16:04:01+00:00,197.0,4.75,226.0,6.97,14.24,47.59359,-54.27349
2022-08-01 16:14:01+00:00,206.0,6.3,219.0,7.39,14.0,47.59359,-54.27349
2022-08-01 16:24:01+00:00,205.0,6.52,205.0,7.18,14.0,47.59359,-54.27349
2022-08-01 16:34:01+00:00,213.0,6.42,215.0,7.1,14.0,47.59359,-54.27349
2022-08-01 16:44:01+00:00,212.0,7.5,219.0,8.37,14.0,47.59359,-54.27349
2022-08-01 16:54:01+00:00,206.0,7.96,210.0,8.76,14.0,47.59359,-54.27349
2022-08-01 17:04:01+00:00,206.0,8.78,212.0,9.42,14.0,47.59359,-54.27349
2022-08-01 17:14:00+00:00,206.0,7.94,218.0,9.21,13.92,47.59359,-54.27349
2022-08-01 17:24:00+00:00,210.0,7.36,211.0,8.14,13.92,47.59359,-54.27349
2022-08-01 17:34:00+00:00,207.0,8.67,204.0,9.81,13.92,47.59359,-54.27349
2022-08-01 17:44:00+00:00,213.0,8.49,212.0,9.4,13.92,47.59359,-54.27349
2022-08-01 17:54:00+00:00,212.0,7.94,210.0,9.01,13.92,47.59359,-54.27349
2022-08-01 18:04:00+00:00,210.0,7.6,211.0,8.38,13.92,47.59359,-54.27349
2022-08-01 18:14:01+00:00,210.0,7.63,213.0,8.43,13.92,47.59359,-54.27349
2022-08-01 18:24:01+00:00,213.0,6.91,213.0,7.31,13.92,47.59359,-54.27349
2022-08-01 18:34:01+00:00,218.0,7.06,218.0,7.57,13.92,47.59359,-54.27349
2022-08-01 18:44:01+00:00,225.0,4.53,229.0,5.29,13.92,47.59359,-54.27349
2022-08-01 18:54:01+00:00,213.0,6.25,221.0,7.46,13.92,47.59359,-54.27349
2022-08-01 19:04:01+00:00,214.0,7.39,226.0,8.13,13.92,47.59359,-54.27349
2022-08-01 20:14:00+00:00,209.0,7.21,211.0,7.89,13.68,47.59359,-54.27349
2022-08-01 20:24:00+00:00,212.0,7.27,221.0,8.45,13.68,47.59359,-54.27349
2022-08-01 20:34:00+00:00,212.0,8.4,214.0,9.26,13.68,47.59359,-54.27349
2022-08-01 20:44:00+00:00,218.0,8.86,217.0,9.48,13.68,47.59359,-54.27349
2022-08-01 20:54:00+00:00,217.0,9.21,221.0,10.39,13.68,47.59359,-54.27349
2022-08-01 21:04:00+00:00,217.0,10.55,220.0,11.92,13.68,47.59359,-54.27349
2022-08-01 21:14:01+00:00,217.0,10.09,219.0,11.44,13.37,47.59359,-54.27349
2022-08-01 21:24:01+00:00,208.0,9.49,209.0,10.97,13.37,47.59359,-54.27349
2022-08-01 21:34:01+00:00,206.0,9.04,210.0,10.25,13.37,47.59359,-54.27349
2022-08-01 21:44:01+00:00,214.0,8.87,213.0,9.91,13.37,47.59359,-54.27349
2022-08-01 21:54:01+00:00,215.0,8.52,208.0,9.36,13.37,47.59359,-54.27349
2022-08-01 22:04:01+00:00,211.0,7.69,210.0,8.79,13.37,47.59359,-54.27349
2022-08-01 22:14:00+00:00,210.0,7.66,212.0,8.45,13.21,47.59359,-54.27349
2022-08-01 22:24:00+00:00,212.0,7.03,215.0,7.87,13.21,47.59359,-54.27349
2022-08-01 22:34:00+00:00,212.0,6.82,212.0,7.31,13.21,47.59359,-54.27349
2022-08-01 22:44:00+00:00,211.0,7.22,219.0,8.1,13.21,47.59359,-54.27349
2022-08-01 22:54:00+00:00,214.0,7.82,222.0,8.69,13.21,47.59359,-54.27349
2022-08-01 23:04:00+00:00,210.0,6.47,216.0,7.64,13.21,47.59359,-54.27349
2022-08-01 23:14:01+00:00,217.0,7.35,214.0,9.46,12.73,47.59359,-54.27349
2022-08-01 23:24:01+00:00,213.0,7.01,218.0,7.84,12.73,47.59359,-54.27349
2022-08-01 23:34:01+00:00,212.0,7.2,215.0,7.93,12.73,47.59359,-54.27349
2022-08-01 23:44:01+00:00,219.0,7.18,223.0,7.88,12.73,47.59359,-54.27349
2022-08-01 23:54:01+00:00,215.0,7.22,215.0,8.05,12.73,47.59359,-54.27349
